{"data":{"norad_id":68990,"epoch":"2026-05-24T16:12:45.014400Z","epoch_age_seconds":106289,"freshness":"FRESH","line1":"1 68990U 26100L   26144.67552100  .00001224  00000+0  12971-3 0  9995","line2":"2 68990  97.7335  42.5354 0003892 232.6657 127.4207 14.90885672  3190","mean_motion":14.90885672,"eccentricity":0.0003892,"inclination_deg":97.7335,"raan_deg":42.5354,"arg_perigee_deg":232.6657,"mean_anomaly_deg":127.4207,"bstar":0.00012971,"rev_number":319,"period_min":96.586883021571,"perigee_km":592.45858678875,"apogee_km":597.88661098053,"semimajor_km":6973.3095988846,"source":"CELESTRAK","updated_at":"2026-05-25T13:38:08.809156Z"}}